Home > Weather > Sion > Past weeks

Flag for Switzerland Weather for the Past 2 Weeks in Sion, Valais, Switzerland

Now
5 °F

Light snow. Ice fog.


Feels Like: N/A
Forecast: 39 / 65 °F
Wind: N/A

Location: Pian Rosa

Current Time: May 4, 2016 at 1:02:20 AM

Latest Report: May 3, 2016 at 11:55 PM


Visibility: 0 mi

Pressure: 30.07 "Hg (28.09 "Hg at 514m altitude)

Humidity: 85%

Dew Point: 1 °F

Location of SionLocation

Historic Weather in Sion — Graph

°F

Sion Temperature Yesterday

Maximum temperature yesterday: 12 °F (at 12:55 AM)
Minimum temperature yesterday: 7 °F (at 9:55 PM)
Average temperature yesterday: 10 °F

High & Low Weather Summary for the Past Weeks

 TemperatureHumidityPressure
High32 °F (Apr 20, 4:55 PM)100% (Apr 22, 5:55 AM)30.45 "Hg (Apr 22, 5:55 AM)
Low-2 °F (Apr 25, 8:55 AM)10% (Apr 20, 9:55 AM)29.47 "Hg (Apr 27, 3:55 AM)
Average13 °F71%29.90 "Hg
* Reported Apr 18 10:55 PM — May 3 10:55 PM, Sion, Weather by CustomWeather, © 2016

Note: Actual official high and low records may vary slightly from our data, if they occured in-between our weather recording intervals... More about our weather records

Advertising

Sion Weather History for the Previous 24 Hours

Scroll right to see more
 ConditionsComfort  
Time TempWeatherWind HumidityBarometerVisibility
10:55 PM
Tue, May 3
7 °FLight snow. Ice fog.N/A78%30.07 "Hg1 mi
9:55 PM7 °FLight snow. Ice fog.N/A78%30.07 "Hg0 mi
8:55 PM9 °FLight snow. Ice fog.N/A85%30.04 "Hg0 mi
7:55 PM10 °FLight snow. Ice fog.N/A79%30.04 "Hg0 mi
6:55 PM10 °FLight snow. Ice fog.N/A85%30.07 "Hg0 mi
5:55 PM10 °FLight snow. Ice fog.N/A85%30.07 "Hg0 mi
4:55 PM12 °FLight snow. Ice fog.N/A79%30.07 "Hg0 mi
3:55 PM12 °FIce fog.N/A79%30.07 "Hg1 mi
2:55 PM12 °FPartly sunny.N/A79%30.09 "Hg4 mi
1:55 PM10 °FScattered clouds.N/A85%30.09 "HgN/A
12:55 PM10 °FSunny.N/A85%30.09 "Hg10 mi
11:55 AM9 °FSunny.N/A85%30.09 "Hg10 mi
10:55 AM9 °FSunny.N/A85%30.07 "Hg10 mi
9:55 AM10 °FSunny.N/A85%30.07 "Hg10 mi
8:55 AM10 °FSunny.N/A85%30.07 "Hg10 mi
7:55 AM9 °FSunny.N/A92%30.07 "Hg10 mi
6:55 AM9 °FClear.N/A92%30.04 "Hg10 mi
5:55 AM10 °FClear.N/A85%30.04 "Hg10 mi
4:55 AM10 °FIce fog.N/A85%30.04 "Hg1 mi
3:55 AM12 °FIce fog.N/A85%30.07 "Hg1 mi
2:55 AM12 °FIce fog.N/A85%30.07 "Hg1 mi
1:55 AM12 °FIce fog.N/A92%30.09 "Hg1 mi
Weather by CustomWeather, © 2016

See weather overviewHow to use our weather pages